Location: Unspecified
(0.0000°N, 0.0000°E)
Time: 00:58:28
(UTC+00:00)

QIANFAN-31 - Pass Details

Date: 10 March 2026
Orbit: 1037 x 1049 km, 89.0° (Epoch: 14 April)

Event Time Altitude Azimuth Distance (km) Brightness Sun altitude
Rises 04:13:07 0° 38° (NE) 3,780 ? -29.2°
Reaches altitude 10° 04:16:51 10° 59° (ENE) 2,832 ? -28.3°
Maximum altitude 04:20:27 16° 93° (E) 2,449 ? -27.4°
Drops below altitude 10° 04:24:03 10° 128° (SE) 2,841 ? -26.5°
Sets 04:27:46 0° 149° (SSE) 3,798 ? -25.6°
